Location: Brachstadt
(48.6975°N, 10.6755°E)
Time: 02:21:46
(UTC+00:00)

ERS-1 Rocket - Pass Details

Date: 18 September 2020
Orbit: 753 x 757 km, 98.5° (Epoch: 24 October)

Event Time Altitude Azimuth Distance (km) Brightness Sun altitude
Exits shadow 20:57:24 44° 337° (NNW) 1,041 3.9 -32.1°
Drops below altitude 10° 21:00:50 10° 344° (NNW) 2,295 6.2 -32.5°
Sets 21:03:09 0° 345° (NNW) 3,226 7.1 -32.7°
